User: anonymous   Login
Location: Caltech
(34.1382°N, 118.1253°W)
Time: 22:44:54
(UTC-08:00)
Language:

SO-67 - Orbit

View from above orbital plane
View from above orbital plane
View from above satellite
View from above satellite

Ground track
Ground track

The orbit data is extracted from the following two-line orbital elements,

1 35870U 09049F   16040.87150642  .00012305  00000-0  24948-3 0  9990
2 35870  97.1263  57.6547 0003328  77.2302  46.1414 15.46514702356799
Epoch (UTC): 09 February 2016 20:54:58
Eccentricity: 0.0003328
inclination: 97.1263°
perigee height: 424 km
apogee height: 429 km
right ascension of ascending node: 57.6547°
argument of perigee: 77.2302°
revolutions per day: 15.46514702
mean anomaly at epoch: 46.1414°
orbit number at epoch: 35679

The dashed part of the orbit path shows where the satellite is in the earth's shadow,  

DLR